Weather Roundup
Issued by NWS

Home | Current Version | Previous Version | Text Only | Print | Product List | Glossary On
Versions: 1 2 3 4 5 6 7 8 9 10 11 12 13 14 15 16 17 18 19 20 21 22 23 24 25 26 27 28 29 30 31 32 33 34 35 36 37 38 39 40 41 42 43 44 45 46 47 48 49 50
000
NZUS93 KARX 220110
HRRWXR

CURRENT HOURLY OBSERVATIONS ACROSS
MUCH OF THE UPPER MISSISSIPPI VALLEY
NATIONAL WEATHER SERVICE LA CROSSE WI
700 PM CST SUN DEC 21 2014


...SOUTHEAST MINNESOTA...


CITY           SKY/WX    TMP DP  RH WIND       PRES   REMARKS
ROCHESTER      MIX PCPN  36  35  96 S24G30    29.76S WCI  24
ROCHESTER/MAYO CLOUDY    37  36  94 SE14G25   29.77R WCI  29
WINONA         CLOUDY    39  36  87 S7        29.83R WCI  34
AUSTIN         DRIZZLE   37  36  93 S16G23    29.76S WCI  28
ALBERT LEA     CLOUDY    37  37 100 S15G21    29.74S FOG     WCI  28
DODGE CENTER   DRIZZLE   37  37 100 S20G28    29.74S WCI  27
PRESTON        CLOUDY    35  34  96 S22G29    29.80R FOG     WCI  24
OWATONNA       DRIZZLE   37  36  93 S15G22    29.74S WCI  28
FARIBAULT      CLOUDY    36  36 100 S7        29.74S FOG     WCI  30
$$

...ELSEWHERE IN MINNESOTA...


CITY           SKY/WX    TMP DP  RH WIND       PRES   REMARKS
MINNEAPOLIS    CLOUDY    36  35  96 SE9       29.74S FOG     WCI  29
INTNL FALLS    CLOUDY    32  30  92 SE8       29.69F FOG     WCI  25
DULUTH         FRZ DRZL  33  31  92 SE10      29.72F VSB 1   WCI  25
RED WING       CLOUDY    37  36  93 SE6       29.77S FOG     WCI  33
REDWOOD FALLS  CLOUDY    37  36  96 SE15      29.64S FOG     WCI  28
MANKATO        CLOUDY    37  34  87 S14G23    29.71S WCI  29
WORTHINGTON    CLOUDY    37 -11  12 S17       29.63F WCI  28
FAIRMONT       CLOUDY    37  34  87 S18G26    29.68S WCI  27
$$

...SOUTHWEST WISCONSIN...


CITY           SKY/WX    TMP DP  RH WIND       PRES   REMARKS
LA CROSSE      LGT RAIN  39  36  89 S20G28    29.84F WCI  29
PRAIRIE DU CHI CLOUDY    38  33  82 SE7       29.90F WCI  33
BOSCOBEL       CLOUDY    39  33  79 VRB6G17   29.93R WCI  35
LONE ROCK      CLOUDY    40  31  70 S14G21    29.95S WCI  32
PLATTEVILLE    CLOUDY    36  33  88 SE16      29.94S WCI  26
FORT MC COY    CLOUDY    37  35  92 S13G18    29.88S WCI  29
CAMP DOUGLAS   CLOUDY    36  36 100 SE9       29.90R WCI  29
VIROQUA        CLOUDY    35  35 100 S15G23    29.87S WCI  26
WIS DELLS      CLOUDY    35  32  88 S15       29.93S FOG     WCI  25
$$

...ELSEWHERE IN WISCONSIN...


CITY           SKY/WX    TMP DP  RH WIND       PRES   REMARKS
MILWAUKEE      CLOUDY    36  28  73 S13       30.06S WCI  27
MADISON        CLOUDY    36  30  79 S14       29.97S WCI  27
GREEN BAY      CLOUDY    36  31  82 S16       30.00S WCI  26
EAU CLAIRE     CLOUDY    37  34  89 S12       29.80S WCI  29
BLACK RVR FLS  DRIZZLE   38  37  99 S8        29.85R WCI  32
MEDFORD        LGT RAIN  32  32  99 SE12G21   29.83S WCI  23
WAUSAU         CLOUDY    34  32  92 S15G22    29.87F FOG     WCI  24
WIS RAPIDS     CLOUDY    35  32  88 S10       29.91F FOG     WCI  27
MARSHFIELD     CLOUDY    34  32  92 S16       29.86F FOG     WCI  24
RICE LAKE      CLOUDY    34  33  98 SE9       29.79S FOG     WCI  26
$$

...NORTHEAST IOWA...


CITY           SKY/WX    TMP DP  RH WIND       PRES   REMARKS
DECORAH        CLOUDY    36  36 100 S12G17    29.84F WCI  27
MASON CITY     CLOUDY    37  36  96 SE15      29.78F WCI  28
CHARLES CITY   CLOUDY    37  37 100 SE15      29.82S FOG     WCI  28
OELWEIN        CLOUDY    37  37 100 SE16      29.86S FOG     WCI  28
$$

...ELSEWHERE IN IOWA...


CITY           SKY/WX    TMP DP  RH WIND       PRES   REMARKS
DES MOINES     DRIZZLE   43  38  82 S14       29.80F
IOWA CITY      CLOUDY    39  35  86 SE12      29.92S WCI  32
FORT DODGE     CLOUDY    39  36  87 S15       29.74F WCI  31
$$

...NORTHERN ILLINOIS...


CITY           SKY/WX    TMP DP  RH WIND       PRES   REMARKS
CHICAGO-OHARE  CLOUDY    35  29  78 S10       30.08S WCI  27
CHICAGO-MIDWAY CLOUDY    38  30  73 S8        30.09S WCI  32
MOLINE         CLOUDY    36  31  82 SE14      29.97R WCI  27
ROCKFORD       CLOUDY    36  29  75 S16G24    30.03F WCI  26
PEORIA         CLOUDY    38  30  73 SE12      30.02F WCI  30
$$

NOTE: "FAIR" INDICATES FEW OR NO CLOUDS BELOW 12,000 FEET WITH NO
SIGNIFICANT WEATHER AND/OR OBSTRUCTIONS TO VISIBILITY. WIND
SPEEDS ARE IN MILES-PER-HOUR.



USA.gov is the U.S. government's official web portal to all federal, state and local government web resources and services.